User: anonymous
Location: Unspecified
(0.0000°N, 0.0000°E)
Time: 07:29:20
(UTC+00:00)
Language:

Optus B3 - Orbit

View from above orbital plane
View from above orbital plane
View from above satellite
View from above satellite

Ground track
Ground track

The orbit data is extracted from the following two-line orbital elements,

1 23227U 94055A   14243.76056007 -.00000086  00000-0  00000+0 0  5444
2 23227 005.6667 058.5758 0005231 111.6582 247.6405 01.00274870 73255
Epoch (UTC): 31 August 2014 18:15:12
Eccentricity: 0.0005231
inclination: 5.6667°
perigee height: 35763 km
apogee height: 35807 km
right ascension of ascending node: 58.5758°
argument of perigee: 111.6582°
revolutions per day: 1.00274870
mean anomaly at epoch: 247.6405°
orbit number at epoch: 7325

The dashed part of the orbit path shows where the satellite is in the earth's shadow,  

DLR